Timeline UpdatesTrip UpdatesNews PostsPvt Posts♥♥Travel TipsAdmin PostsConv PostsFollowed PostsChat RequestsBlog PostsPNR Posts

Disclaimer
Search
 
 
Thu Oct 23, 2014 07:09:58 ISTHomeTrainsΣChainsAtlasPNRForumGalleryNewsFAQTripsMembersLoginFeedback
No Recent News for this Train
Other Trains in the News **new
Latest...
.
Mon Oct 06, 2014 (04:03PM)
⇐ Return Journey: Train# 11058

11057/Mumbai LTT - Amritsar (Pathankot) Express

Time-Table HAS CHANGED.
Oct 06 (4:03PM)
Change Departure Station:
Change Arrival Station:
Post a Train Travel TipPost a Train Travel Tip **new
Post a Comment/Question/Picture/VideoPost a Comment/Question/Picture/Video
Pantry/Catering
✕ NO Pantry Car
✓ Catering Avbl
RSA - Rake Sharing
No RSA
Rake/Coach Composition
LOCO-SLR-GEN-GEN-MILITARY-A1-B3-B2-B1-S8-S7-S6-S5-S4-S3-S2-S1-RMS-LDS-[B4-S9-S10-SLR]. ; [B4-S9-S10-SLR] -> Is the Slip portion for Dhule and bifurcates from the main train at Chalisgaon.
Loco
LTT-UMB --> GZB WAP-1/4/5/7 UMB-ASR --> TKD WDM3A/WDP3A
News    PNR    Forum    Time-Table    Availability    Fare Chart    Map    Arr/Dep History    Trips    Gallery    ΣChains    X/O    Timeline    
Travel Time: 13h 7m    31 halts    Distance: 531 km    Avg Speed: 40 km/hr
Type: Mail/Express
Zone: CR/Central
Departs @ 03:23 (Avg 55m late)
Platform# 2
SMTWTFS
Faridabad/FDB 
Arrives @ 16:30 (Avg 31m late)
Platform# 4
SMTWTFS
Amritsar Junction/ASR 

31 halts. 91 intermediate Stations between Faridabad and Amritsar Junction

Show ALL intermediate Stations  Show Old Time-Table

#TrkCodeStation NameX/OArrivesAvgDepartsAvgHaltPFDay#KmSpeedElevZoneAddress
1/==/LTTMumbai Lokmanya Tilak Terminus (5)  -23:45+231-1499.0437mCRMumbai - 400089, Maharashtra
2/==/TNAThane (10)  00:07 00:08+400:10+33 2m72-1482.56110mCRThane (West) 400602, Maharashtra
3/==/KYNKalyan Junction (8)  00:30+1200:35 00:33+155 3m42-1462.36210mCRKalyan 421301, Maharashtra
4/==/KSRAKasara (4)XO  01:43 01:38+1301:45 01:40+202m12-1394.925290mCRDist. Thane 421602, Maharashtra
5/==/IGPIgatpuri (4)X02:15+802:20+145m22-1380.563589mCRIgatpuri 422403, Maharashtra
6/==/DVLDevlali (3)X  03:08 03:03+1303:10 03:05+142m12-1335.669561mCRDist. Nashik 422401, Maharashtra
7/==/NKNasik Road (3)XO  03:15 03:10+1703:20 03:15+155m12-1329.993563mCRNashik 422101, Maharashtra
8/==/MMRManmad Junction (6)X  04:05 04:02+1904:10 04:05+205 3m22-1257.176580mCRManmad 423104, Maharashtra
9/==/CSNChalisgaon Junction (3)  05:03 04:58+1805:05 05:00+222m--2-1189.696352mCRChalisgaon 424101, Maharashtra
10/==/PCPachora Junction (4)X  05:33 05:28+2505:35 05:30+262m--2-1144.787264mCRPachora 424201, Maharashtra
11/==/JLJalgaon Junction (4)XO  06:08 06:03+2906:10 06:05+292m32-1097.058213mCRJalgaon 425001, Maharashtra
12/==/BSLBhusaval Junction (8)X  06:40 06:30+3106:50 06:45+3010 15m62-1072.951208mCRBhusaval 425201, Maharashtra
13/==/SAVSavda (2)XO  07:03+3107:05+312m--2-1057.5105220mCRSavda, Maharashtra
14/==/NBNimbhora (2)XO  07:13 07:10+3407:15 07:12+342m--2-1048.876229mCRJalgaon, Maharashtra
15/==/RVRaver (2)X  07:23 07:20+3507:25 07:22+352m--2-1038.676242mCRJalgaon, Maharashtra
16/==/BAUBurhanpur (2)  07:43 07:38+3607:45 07:40+362m22-1018.487269mCRBurhanpur, Madhya Pradesh
17/==/NPNRNepanagar (2)  08:03 07:58+3908:05 08:00+392m--2-992.230289mCRState Highway 27, Madhya Pradesh
18/==/KNWKhandwa Junction (5)X  09:35 09:25+009:40 09:30+35m22-949.541310mCRKhandwa, Madhya Pradesh
19/==/TLVTalvadiya (2)XO  09:53-109:55+62m--2-933.899308mWCRKhandwa, Madhya Pradesh
20/==/CAERChhanera (2)XO  10:13+1310:15+172m--2-904.188283mWCRChhanera, Madhya Pradesh
21/==/KKNKhirkiya (2)X  10:36+2010:38+242m22-873.473281mWCRSH 15, Madhya Pradesh
22/==/HDHarda (3)X  11:04+2311:06+232m--2-841.961289mWCRHarda, Madhya Pradesh
23/==/TBNTimarni (2)  11:20+2211:22+292m--2-827.840308mWCRTimarni, Madhya Pradesh
24/==/BPFBanapura (2)  12:04+1012:06+132m--2-799.651314mWCRBanapura, Madhya Pradesh
25/==/ETItarsi Junction (7)X  12:50 12:45+812:55 12:50+165m12-766.168329mWCRItarsi 461111, Madhya Pradesh
26/==/HBDHoshangabad (2)X  13:13 13:06+2113:15 13:08+222m--2-748.042308mWCRHoshangabad, Madhya Pradesh
27/==/BNIBudni (2)  13:25 13:18+2413:27 13:20+272m--2-741.149311mWCRSehore 466445 Madhya pradesh, Madhya Pradesh
28/==/ODGObaidulla GanjO  14:03 13:58+3514:05 14:00+352m22-710.358 WCRObaidullaganj Raisen Dist., Madhya Pradesh
29/==/MDDPMandi Dip (1)  14:19 14:14+3414:21 14:16+352m12-696.757 WCRMandideep, Madhya Pradesh
30/==/HBJBhopal HabibGanj (5)X  14:38 14:33+3614:40 14:35+402m12-680.615496mWCRHabibGanj, Madhya Pradesh
31/==/BPLBhopal Junction (6)  15:05 15:00+3015:10 15:05+365m22-674.474497mWCRBhopal, Madhya Pradesh
32/==/SCISanchi (2)XO  15:41+3815:43+372m22-630.343428mWCRRaisen, Madhya Pradesh
33/==/BHSVidisha (3)  15:56+3515:58+352m12-620.970 WCRVidisha, Madhya Pradesh
34/==/GLGGulabhGanj (3)  16:16+3616:18+362m12-599.992 WCRVidisha, Madhya Pradesh
35/==/BAQGanj Basoda (4)X  16:30+4016:32+402m12-581.571 WCRVidisha, Madhya Pradesh
36/==/MABAMandi Bamora (3)XO  16:56+3816:58+372m12-553.025413mWCRState Highway 14, Madhya Pradesh
37/==/BINABina Junction (5)X  17:40+1717:45+185m32-535.858414mWCRJn Pt - KATNI/GUNA/ BPL/JHS, Madhya Pradesh
38/==/DUADhaura (3)X  18:21+2618:23+262m--2-501.258407mNCRDhaura Tanda, Madhya Pradesh
39/==/JLNJakhalaun (3)  18:36 18:35+2418:37+241 2m12-489.772394mNCRLalitpur(05176-272220), Uttar Pradesh
40/==/LARLalitpur (3)  18:51+2518:53+252m32-472.986373mNCRLalitpur, Uttar Pradesh
41/==/TBTTalbahat (4)X  19:21+2819:23+282m32-433.059314mNCRKhaniyadhana Station Rd, Madhya Pradesh
42/==/BZYBasai (3)X  19:36+2719:38+272m22-420.260287mNCR07522289600(Gate ManMob. - 9452701575), Madhya Pradesh
43/==/BABBabina (3)X  19:50+2919:52+292m12-408.140285mNCRBabina, Uttar Pradesh
44/==/JHSJhansi Junction (7)X  20:30+2320:38+278m52-382.668259mNCRJhansi, Uttar Pradesh
45/==/DAADatia (2)X  21:00+3321:02+342m--2-357.563264mNCRDatia, Madhya Pradesh
46/==/SORSonagir (2)X  21:13+3421:15+352m--2-346.071211mNCRDatia, Madhya Pradesh
47/==/DBADabra (3)X  21:31+3721:33+382m--2-327.269 NCRDabra(District-Gwalior), Madhya Pradesh
48/==/GWLGwalior Junction (4)X  22:10+4122:18+398m22-284.993214mNCRGwalior, Madhya Pradesh
49/==/MRAMorena (3)X  22:43+4722:45+472m22-246.370176mNCRMorena, Madhya Pradesh
50/==/DHODholpur Junction (3)X  23:08+4723:10+472m12-219.554177mNCRDholpur, Rajasthan
51/==/AGCAgra Cantt. (6)X  00:08+4900:18 00:16+5410 8m23-166.927174mNCRAgra, Uttar Pradesh
52/==/RKMRaja Ki Mandi (4)  00:25+5900:27+592m13-162.869170mNCRAgra, Uttar Pradesh
53/==/MTJMathura Junction (10)  01:10+1:0301:20 01:15+1:0410 5m33-113.275179mNCRMathura, Uttar Pradesh
54/==/KSVKosi Kalan (3)  01:48+1:0601:50+1:072m13-71.744189mNCRKosi Kalan, Uttar Pradesh
55/==/PWLPalwal (8)  02:48+4302:50+452m--3-29.271200mNRPalwal, Haryana
56/==/BVHBallabgarh (5)  03:08+5403:10+542m33-8.144203mNRFaridabad, Haryana
57/==/FDBFaridabad (4)»  03:21+5503:23+552m230.052206mNRold Faridabad, Haryana
58/==/NZMDelhi Hazrat Nizamuddin (7)O  03:47+5703:49+572m3320.817209mNRNew Delhi 110013, Delhi NCT
59/==/NDLSNew Delhi (16)  04:10 04:15+5604:30+5820 15m2328.215215mNRNew Delhi, Delhi NCT
60/==/SZMDelhi Sabzi Mandi (2)  04:46+1:0804:48+1:082m--332.349220mNRGulabi Bagh, Delhi NCT
61/==/BHDBadli (2)XO  05:01+1:1005:03+1:112m--342.951217mNRRohini, Delhi NCT
62/==/NURNarela (2)X  05:17 05:18+1:1405:19 05:20+1:162m--355.637222mNRNarela, Delhi NCT
63/==/SNPSonipat (3)X  05:46 05:48+1:0605:48 05:50+1:122m--372.660225mNRSonipat, Haryana
64/==/GNUGanaur  06:00 06:06+1:1506:02 06:08+1:172m--388.557222mNRGanaur, Haryana
65/==/SMKSamalkha (3)  06:21+1:1106:23+1:152m--3100.854229mNRSamalkha, Haryana
66/==/PNPPanipat Junction (5)  06:38 06:42+1:1306:40 06:44+1:162m33117.864235mNRPanipat, Haryana
67/==/GRAGharaunda (2)  07:00+1:1307:02+1:162m--3134.766244mNRGharaunda, Haryana
68/==/KUNKarnal (3)X  07:18+1:1307:20+1:132m23152.252253mNRKarnal, Haryana
69/==/TRRTaraori (2)X  07:34+1:0807:36 07:35+1:102 1m--3164.326255mNRTaraori, Haryana
70/==/NLKRNilokheri (2)XO  07:44+1:0307:46 07:45+1:042 1m--3168.234254mNRNilokheri, Haryana
71/==/KKDEKurukshetra Junction (3)  08:20 08:15+4508:22 08:17+462m13185.378260mNRKurukshetra, Haryana
72/==/SHDMShahbad Markanda (2)X  08:43 08:34+5008:45 08:36+502m23207.527267mNRShahabad Markanda, Haryana
73/==/UMBAmbala Cantt. Junction (7)X09:20+4809:40+5220m63227.438278mNRAmbala 133001, Haryana
74/==/UBCAmbala City (3)X  09:52+5709:54+582m33235.082273mNRNH-1, Haryana
75/==/RPJRajpura Junction (3)  10:11 10:09+5810:13 10:11+592m13255.455272mNRNH-1, Punjab
76|--|PTAPatiala (4)X  10:35 10:38+1:0810:40+1:105 2m13280.352256mNRPatiala, Punjab
77|--|NBANabha (1)  11:08 11:10+1:0611:10 11:12+1:062m13306.149250mNRNabha, Punjab
78|--|DUIDhuri Junction (4)  11:45+1:0211:50+1:035m--3333.172248mNRDhuri, Punjab
79|--|METMalerkotla (2)X  12:07 12:04+1:0712:09 12:06+1:082m13349.928248mNRMalerkotla., Punjab
80|--|AHHAhmadgarh (1)  12:48+4812:50+482m13369.744256mNRAhmedgarh, Punjab
81|--|LDHLudhiana Junction (7)X  13:25+5013:35+5510m33395.134246mNRLudhiana 141001, Punjab
82/==/PHRPhillaur Junction (3)X  13:58+1:0014:00+1:002m23408.264246mNRPhillaur, Punjab
83/==/GRYGoraya (2)X  14:12+1:0214:14+1:022m23420.954240mNRGoraya, Punjab
84/==/PGWPhagwara Junction (3)X  14:25+5314:27+532m23430.870245mNRPhagwara, Punjab
85/==/JRCJalandhar Cantt. Junction (3)X  14:41+5814:43+582m13447.124239mNRNear Rama Mandi, Punjab
86/==/JUCJalandhar City Junction (5)  14:55+5115:00+545m13451.956239mNRJalandhar 144001, Punjab
87/==/BEASBeas Junction (2)X  15:39+5015:41+502m13488.080238mNRBeas, Punjab
88/==/JNLJandiala (2)X  15:59+5216:01+522m13511.940238mNRJandiala, Punjab
89/==/ASRAmritsar Junction (5)•  16:30+31-43531.1-233mNRAmritsar 143002, Punjab
Scroll to Top
Scroll to Bottom